Time,TemperatureF,DewpointF,PressureIn,WindDirection,WindDirectionDegrees,WindSpeedMPH,WindSpeedGustMPH,Humidity,HourlyPrecipIn,Conditions,Clouds,dailyrainin,SoftwareType,DateUTC
2013-01-01 00:07:00,32.2,25.0,29.88,SSE,163,0.0,2.0,75,0.00,,,0.00,weatherlink.com 1.10,2013-01-01 05:07:00,
2013-01-01 00:21:00,32.1,26.0,29.88,SSW,203,0.0,2.0,77,0.00,,,0.00,weatherlink.com 1.10,2013-01-01 05:21:00,
2013-01-01 00:36:00,32.4,26.0,29.87,SSE,150,0.0,2.0,78,0.00,,,0.00,weatherlink.com 1.10,2013-01-01 05:36:00,
2013-01-01 00:51:00,32.4,27.0,29.87,NNW,346,0.0,2.0,80,0.00,,,0.00,weatherlink.com 1.10,2013-01-01 05:51:00,
2013-01-01 01:06:00,32.9,27.0,29.88,NW,323,0.0,2.0,80,0.00,,,0.00,weatherlink.com 1.10,2013-01-01 06:06:00,
2013-01-01 01:21:00,33.0,28.0,29.88,South,187,0.0,1.0,81,0.00,,,0.00,weatherlink.com 1.10,2013-01-01 06:21:00,
2013-01-01 01:36:00,33.0,28.0,29.88,South,169,0.0,3.0,82,0.00,,,0.00,weatherlink.com 1.10,2013-01-01 06:36:00,
2013-01-01 01:51:00,33.2,28.0,29.88,SW,218,0.0,3.0,81,0.00,,,0.00,weatherlink.com 1.10,2013-01-01 06:51:00,
2013-01-01 02:06:00,33.2,28.0,29.88,NNW,340,0.0,1.0,81,0.00,,,0.00,weatherlink.com 1.10,2013-01-01 07:06:00,
2013-01-01 02:21:00,33.4,28.0,29.88,South,169,0.0,1.0,80,0.00,,,0.00,weatherlink.com 1.10,2013-01-01 07:21:00,
2013-01-01 02:37:00,33.5,28.0,29.87,SSE,157,0.0,1.0,80,0.00,,,0.00,weatherlink.com 1.10,2013-01-01 07:37:00,
2013-01-01 02:52:00,33.7,28.0,29.87,SSE,152,0.0,1.0,79,0.00,,,0.00,weatherlink.com 1.10,2013-01-01 07:52:00,
2013-01-01 03:07:00,33.6,28.0,29.86,SSE,165,0.0,2.0,80,0.00,,,0.00,weatherlink.com 1.10,2013-01-01 08:07:00,
2013-01-01 03:22:00,33.7,28.0,29.88,SSE,158,0.0,1.0,80,0.00,,,0.00,weatherlink.com 1.10,2013-01-01 08:22:00,
2013-01-01 03:37:00,33.8,28.0,29.87,East,88,0.0,3.0,80,0.00,,,0.00,weatherlink.com 1.10,2013-01-01 08:37:00,
2013-01-01 03:52:00,33.6,29.0,29.87,NE,37,1.0,1.0,82,0.00,,,0.00,weatherlink.com 1.10,2013-01-01 08:52:00,
2013-01-01 04:07:00,33.5,29.0,29.86,SSW,193,0.0,1.0,82,0.00,,,0.00,weatherlink.com 1.10,2013-01-01 09:07:00,
2013-01-01 04:22:00,33.4,29.0,29.88,SSE,156,1.0,2.0,83,0.00,,,0.00,weatherlink.com 1.10,2013-01-01 09:22:00,
2013-01-01 04:37:00,33.3,29.0,29.87,SSE,155,0.0,1.0,83,0.00,,,0.00,weatherlink.com 1.10,2013-01-01 09:37:00,
2013-01-01 04:52:00,33.1,29.0,29.87,NNE,26,0.0,1.0,84,0.00,,,0.00,weatherlink.com 1.10,2013-01-01 09:52:00,
2013-01-01 05:07:00,33.2,29.0,29.88,WNW,285,0.0,2.0,84,0.00,,,0.00,weatherlink.com 1.10,2013-01-01 10:07:00,
2013-01-01 05:22:00,33.3,29.0,29.87,SSE,148,0.0,2.0,83,0.00,,,0.00,weatherlink.com 1.10,2013-01-01 10:22:00,
2013-01-01 05:37:00,33.4,29.0,29.87,SSE,148,0.0,1.0,82,0.00,,,0.00,weatherlink.com 1.10,2013-01-01 10:37:00,
2013-01-01 05:52:00,33.7,28.0,29.88,SSE,148,0.0,1.0,80,0.00,,,0.00,weatherlink.com 1.10,2013-01-01 10:52:00,
2013-01-01 06:07:00,34.5,27.0,29.88,ENE,67,0.0,1.0,73,0.00,,,0.00,weatherlink.com 1.10,2013-01-01 11:07:00,
2013-01-01 06:22:00,35.1,25.0,29.89,West,276,0.0,5.0,67,0.00,,,0.00,weatherlink.com 1.10,2013-01-01 11:22:00,
2013-01-01 06:37:00,36.2,23.0,29.88,NW,319,4.0,8.0,59,0.00,,,0.00,weatherlink.com 1.10,2013-01-01 11:37:00,
2013-01-01 06:52:00,36.1,24.0,29.89,SSE,149,0.0,3.0,61,0.00,,,0.00,weatherlink.com 1.10,2013-01-01 11:52:00,
2013-01-01 07:07:00,35.8,23.0,29.90,WNW,297,0.0,4.0,61,0.00,,,0.00,weatherlink.com 1.10,2013-01-01 12:07:00,
2013-01-01 07:22:00,35.4,23.0,29.90,NNE,22,0.0,2.0,61,0.00,,,0.00,weatherlink.com 1.10,2013-01-01 12:22:00,
2013-01-01 07:37:00,35.3,23.0,29.89,North,9,0.0,5.0,61,0.00,,,0.00,weatherlink.com 1.10,2013-01-01 12:37:00,
2013-01-01 07:52:00,34.6,23.0,29.88,SE,134,0.0,0.0,63,0.00,,,0.00,weatherlink.com 1.10,2013-01-01 12:52:00,
2013-01-01 08:07:00,34.5,24.0,29.89,SE,139,0.0,2.0,65,0.00,,,0.00,weatherlink.com 1.10,2013-01-01 13:07:00,
2013-01-01 08:22:00,34.9,25.0,29.90,ESE,115,1.0,2.0,67,0.00,,,0.00,weatherlink.com 1.10,2013-01-01 13:22:00,
2013-01-01 08:52:00,36.1,24.0,29.91,NNW,328,1.0,4.0,61,0.00,,,0.00,weatherlink.com 1.10,2013-01-01 13:52:00,
2013-01-01 09:07:00,36.4,24.0,29.91,SE,141,1.0,4.0,61,0.00,,,0.00,weatherlink.com 1.10,2013-01-01 14:07:00,
2013-01-01 09:22:00,36.6,24.0,29.92,WNW,301,1.0,8.0,60,0.00,,,0.00,weatherlink.com 1.10,2013-01-01 14:22:00,
2013-01-01 09:37:00,36.8,24.0,29.93,South,169,3.0,7.0,60,0.00,,,0.00,weatherlink.com 1.10,2013-01-01 14:37:00,
2013-01-01 09:52:00,37.0,24.0,29.93,NW,307,4.0,10.0,60,0.00,,,0.00,weatherlink.com 1.10,2013-01-01 14:52:00,
2013-01-01 10:07:00,36.8,24.0,29.93,SSW,194,1.0,8.0,59,0.00,,,0.00,weatherlink.com 1.10,2013-01-01 15:07:00,
2013-01-01 10:22:00,36.9,21.0,29.93,ESE,113,3.0,9.0,53,0.00,,,0.00,weatherlink.com 1.10,2013-01-01 15:22:00,
2013-01-01 10:37:00,36.7,20.0,29.92,South,177,2.0,8.0,52,0.00,,,0.00,weatherlink.com 1.10,2013-01-01 15:37:00,
2013-01-01 10:52:00,36.4,21.0,29.92,WNW,301,1.0,11.0,53,0.00,,,0.00,weatherlink.com 1.10,2013-01-01 15:52:00,
2013-01-01 11:07:00,36.6,20.0,29.92,North,6,1.0,10.0,52,0.00,,,0.00,weatherlink.com 1.10,2013-01-01 16:07:00,
2013-01-01 11:22:00,36.4,21.0,29.93,NNW,337,1.0,12.0,53,0.00,,,0.00,weatherlink.com 1.10,2013-01-01 16:22:00,
2013-01-01 11:53:00,35.8,20.0,29.90,NNW,330,2.0,6.0,52,0.00,,,0.00,weatherlink.com 1.10,2013-01-01 16:53:00,
2013-01-01 12:07:00,35.8,20.0,29.90,WNW,284,2.0,10.0,53,0.00,,,0.00,weatherlink.com 1.10,2013-01-01 17:07:00,
2013-01-01 12:22:00,35.5,19.0,29.90,SE,127,4.0,4.0,52,0.00,,,0.00,weatherlink.com 1.10,2013-01-01 17:22:00,
2013-01-01 12:37:00,35.2,19.0,29.89,SSE,158,0.0,4.0,52,0.00,,,0.00,weatherlink.com 1.10,2013-01-01 17:37:00,
2013-01-01 12:52:00,35.0,18.0,29.90,WSW,248,1.0,14.0,51,0.00,,,0.00,weatherlink.com 1.10,2013-01-01 17:52:00,
2013-01-01 13:07:00,35.3,19.0,29.90,SE,143,2.0,5.0,51,0.00,,,0.00,weatherlink.com 1.10,2013-01-01 18:07:00,
2013-01-01 13:22:00,35.9,20.0,29.90,South,179,0.0,4.0,52,0.00,,,0.00,weatherlink.com 1.10,2013-01-01 18:22:00,
2013-01-01 13:37:00,36.1,24.0,29.90,North,358,0.0,3.0,61,0.00,,,0.00,weatherlink.com 1.10,2013-01-01 18:37:00,
2013-01-01 13:52:00,34.1,24.0,29.90,ENE,75,1.0,2.0,66,0.00,,,0.00,weatherlink.com 1.10,2013-01-01 18:52:00,
2013-01-01 14:07:00,32.8,23.0,29.89,SE,136,0.0,2.0,68,0.00,,,0.00,weatherlink.com 1.10,2013-01-01 19:07:00,
2013-01-01 14:22:00,32.2,23.0,29.88,West,277,0.0,3.0,68,0.00,,,0.00,weatherlink.com 1.10,2013-01-01 19:22:00,
2013-01-01 14:37:00,31.9,22.0,29.89,South,172,0.0,1.0,67,0.00,,,0.00,weatherlink.com 1.10,2013-01-01 19:37:00,
2013-01-01 14:52:00,31.7,23.0,29.90,ENE,65,1.0,1.0,70,0.00,,,0.00,weatherlink.com 1.10,2013-01-01 19:52:00,
2013-01-01 15:07:00,32.7,21.0,29.91,West,270,0.0,4.0,63,0.00,,,0.00,weatherlink.com 1.10,2013-01-01 20:07:00,
2013-01-01 15:22:00,33.1,21.0,29.91,SE,135,0.0,2.0,62,0.00,,,0.00,weatherlink.com 1.10,2013-01-01 20:22:00,
2013-01-01 15:37:00,32.9,20.0,29.92,SSE,158,0.0,6.0,59,0.00,,,0.00,weatherlink.com 1.10,2013-01-01 20:37:00,
2013-01-01 15:52:00,32.3,19.0,29.93,ESE,108,2.0,5.0,58,0.00,,,0.00,weatherlink.com 1.10,2013-01-01 20:52:00,
2013-01-01 16:08:00,31.0,16.0,29.93,NNW,340,1.0,7.0,55,0.00,,,0.00,weatherlink.com 1.10,2013-01-01 21:08:00,
2013-01-01 16:23:00,30.3,15.0,29.93,WNW,294,1.0,4.0,54,0.00,,,0.00,weatherlink.com 1.10,2013-01-01 21:23:00,
2013-01-01 16:38:00,29.5,16.0,29.94,NW,315,1.0,2.0,58,0.00,,,0.00,weatherlink.com 1.10,2013-01-01 21:38:00,
2013-01-01 16:53:00,29.0,15.0,29.96,SE,140,1.0,2.0,57,0.00,,,0.00,weatherlink.com 1.10,2013-01-01 21:53:00,
2013-01-01 17:08:00,28.8,17.0,29.96,SSE,152,1.0,3.0,61,0.00,,,0.00,weatherlink.com 1.10,2013-01-01 22:08:00,
2013-01-01 17:23:00,28.2,17.0,29.97,SSE,150,0.0,2.0,62,0.00,,,0.00,weatherlink.com 1.10,2013-01-01 22:23:00,
2013-01-01 17:38:00,28.1,15.0,29.98,WSW,244,0.0,1.0,59,0.00,,,0.00,weatherlink.com 1.10,2013-01-01 22:38:00,
2013-01-01 17:53:00,28.0,15.0,29.98,South,170,0.0,10.0,59,0.00,,,0.00,weatherlink.com 1.10,2013-01-01 22:53:00,
2013-01-01 18:08:00,27.8,17.0,30.00,WNW,293,0.0,2.0,64,0.00,,,0.00,weatherlink.com 1.10,2013-01-01 23:08:00,
2013-01-01 18:23:00,27.2,16.0,30.00,NW,307,0.0,1.0,62,0.00,,,0.00,weatherlink.com 1.10,2013-01-01 23:23:00,
2013-01-01 18:38:00,26.9,15.0,30.01,SSE,148,0.0,2.0,61,0.00,,,0.00,weatherlink.com 1.10,2013-01-01 23:38:00,
2013-01-01 18:53:00,26.2,14.0,30.01,WNW,302,1.0,2.0,60,0.00,,,0.00,weatherlink.com 1.10,2013-01-01 23:53:00,
2013-01-01 19:08:00,26.0,13.0,30.02,SSW,199,0.0,3.0,59,0.00,,,0.00,weatherlink.com 1.10,2013-01-02 00:08:00,
2013-01-01 19:23:00,25.5,12.0,30.02,WNW,300,0.0,2.0,58,0.00,,,0.00,weatherlink.com 1.10,2013-01-02 00:23:00,
2013-01-01 19:38:00,25.0,11.0,30.03,ESE,103,0.0,5.0,56,0.00,,,0.00,weatherlink.com 1.10,2013-01-02 00:38:00,
2013-01-01 19:53:00,24.5,12.0,30.02,SSE,155,1.0,6.0,59,0.00,,,0.00,weatherlink.com 1.10,2013-01-02 00:53:00,
2013-01-01 20:08:00,23.9,11.0,30.02,SW,219,1.0,3.0,58,0.00,,,0.00,weatherlink.com 1.10,2013-01-02 01:08:00,
2013-01-01 20:23:00,23.5,11.0,30.02,South,190,0.0,4.0,59,0.00,,,0.00,weatherlink.com 1.10,2013-01-02 01:23:00,
2013-01-01 20:43:00,23.1,10.0,30.02,NE,37,1.0,2.0,58,0.00,,,0.00,weatherlink.com 1.10,2013-01-02 01:43:00,
2013-01-01 20:53:00,22.6,10.0,30.02,SSE,153,0.0,1.0,59,0.00,,,0.00,weatherlink.com 1.10,2013-01-02 01:53:00,
2013-01-01 21:08:00,22.0,10.0,30.03,SSE,150,0.0,1.0,61,0.00,,,0.00,weatherlink.com 1.10,2013-01-02 02:08:00,
2013-01-01 21:23:00,21.5,10.0,30.04,SSE,152,0.0,1.0,61,0.00,,,0.00,weatherlink.com 1.10,2013-01-02 02:23:00,
2013-01-01 21:38:00,21.3,10.0,30.03,NW,305,1.0,2.0,61,0.00,,,0.00,weatherlink.com 1.10,2013-01-02 02:38:00,
2013-01-01 21:53:00,21.1,10.0,30.04,SSE,165,0.0,2.0,63,0.00,,,0.00,weatherlink.com 1.10,2013-01-02 02:53:00,
2013-01-01 22:08:00,20.9,10.0,30.04,South,191,1.0,2.0,64,0.00,,,0.00,weatherlink.com 1.10,2013-01-02 03:08:00,
2013-01-01 22:24:00,20.4,10.0,30.05,SE,141,0.0,3.0,64,0.00,,,0.00,weatherlink.com 1.10,2013-01-02 03:24:00,
2013-01-01 22:39:00,20.3,10.0,30.05,SSE,153,0.0,2.0,64,0.00,,,0.00,weatherlink.com 1.10,2013-01-02 03:39:00,
2013-01-01 22:54:00,19.9,9.0,30.04,SSE,158,0.0,1.0,64,0.00,,,0.00,weatherlink.com 1.10,2013-01-02 03:54:00,
2013-01-01 23:09:00,19.9,9.0,30.05,SSE,162,0.0,2.0,64,0.00,,,0.00,weatherlink.com 1.10,2013-01-02 04:09:00,
2013-01-01 23:24:00,19.7,10.0,30.05,SSE,149,0.0,2.0,65,0.00,,,0.00,weatherlink.com 1.10,2013-01-02 04:24:00,
2013-01-01 23:39:00,19.2,10.0,30.05,NW,323,0.0,1.0,67,0.00,,,0.00,weatherlink.com 1.10,2013-01-02 04:39:00,
2013-01-01 23:54:00,19.2,10.0,30.05,NW,318,0.0,3.0,67,0.00,,,0.00,weatherlink.com 1.10,2013-01-02 04:54:00,